Wind_Speed
3 3 1 4 6 7 8 8 5 3 5 6 4 3 2 2 2 2 2 1 1 4 1 4 7 5 7 8 4 1 0 3 5 6 8 8 8 8 8 7 7 8 8 11 15 18 20 20 20 20 20 20 19 18 19 19 18 18 17 16 15 15 16 16 16 16 15 13 12 11 12 13 12 12 10 10 8 7 7 6 4 2 1 1 1 0
3 4 5 7 8 7 8 8 5 3 5 5 4 4 2 1 2 2 2 1 1 4 1 2 7 5 6 7 2 1 2 6 7 7 8 10 9 8 8 9 8 7 5 7 11 15 17 19 20 21 21 22 21 20 20 20 19 18 17 17 17 16 17 17 17 16 16 14 14 14 14 14 13 12 11 10 9 8 7 6 4 3 1 1 1 2
3 3 8 7 5 2 1 4 4 3 4 4 3 4 1 1 3 1 2 2 2 3 2 2 4 3 2 5 5 1 2 5 6 7 8 10 10 8 9 9 8 6 5 6 9 13 17 19 21 21 21 22 22 21 21 20 19 19 18 17 18 18 17 17 17 17 16 14 13 13 14 15 13 12 11 10 9 8 7 6 5 3 1 1 3 5
1 4 6 3 4 4 1 1 3 2 2 3 3 3 2 3 3 1 2 4 3 3 4 3 3 3 1 3 6 4 3 3 4 6 6 7 9 10 11 10 9 9 8 8 8 11 15 17 19 20 21 22 22 21 21 21 20 20 19 18 19 19 18 18 18 17 15 13 12 10 11 13 13 12 12 10 9 8 7 7 6 4 2 2 5 6
4 5 2 4 5 5 1 1 3 4 2 2 4 4 3 5 4 1 4 4 3 4 4 6 4 1 2 5 8 6 4 4 4 5 6 7 8 9 8 8 9 11 10 10 9 9 13 17 19 21 21 22 22 23 24 24 23 22 20 20 20 20 19 19 18 17 15 13 13 11 11 12 12 11 12 12 10 10 9 8 7 5 4 4 5 6
5 5 4 5 3 4 3 2 3 5 3 3 4 7 7 9 6 6 8 5 2 1 2 5 2 2 4 8 10 6 5 6 4 5 8 9 8 6 6 6 7 9 10 11 11 12 14 17 19 20 20 21 22 24 26 25 24 23 21 20 20 20 20 19 18 17 16 14 14 14 13 14 13 11 13 14 13 12 10 9 7 6 6 6 6 6
3 3 4 5 4 4 3 3 4 5 3 3 4 7 8 8 7 9 10 5 1 1 2 4 2 1 3 8 11 8 8 9 6 6 8 9 8 7 7 7 7 8 9 10 11 12 15 17 18 19 21 23 24 25 25 25 25 24 22 21 21 21 21 20 19 17 16 15 15 15 15 15 15 13 14 15 14 12 10 9 9 8 8 8 7 6
2 1 1 3 4 4 3 3 5 5 5 4 5 6 10 9 9 11 9 4 2 2 2 3 2 0 2 7 12 10 8 10 9 8 8 8 9 9 8 8 9 10 10 10 10 11 14 18 20 21 24 26 25 24 24 24 25 25 24 23 22 22 21 20 19 17 17 16 15 15 16 16 16 15 14 15 14 13 11 10 10 9 9 9 8 7
2 2 3 4 3 4 5 5 7 8 5 2 2 7 8 8 7 7 5 2 1 3 1 4 3 1 3 4 8 10 9 11 13 12 10 9 11 11 9 9 10 11 11 11 12 12 15 20 23 25 26 26 25 24 25 26 26 26 25 24 23 22 22 21 19 18 18 17 16 15 15 16 16 15 14 14 14 14 13 12 11 9 9 10 9 7
3 5 6 6 4 5 6 5 7 7 3 3 11 13 9 9 8 5 3 2 3 2 2 6 6 2 3 2 5 8 11 13 12 12 10 9 10 10 9 10 10 10 10 11 12 15 20 23 25 25 24 24 24 25 25 25 25 26 26 25 24 23 22 21 20 19 19 18 17 16 16 17 17 16 15 15 15 15 15 14 13 11 10 12 11 8
4 3 4 4 5 7 4 1 3 6 5 7 12 11 9 8 5 4 3 3 2 1 2 5 8 4 2 3 6 9 12 13 11 10 9 8 10 11 9 9 10 10 9 10 11 14 20 22 22 22 21 22 23 23 23 23 24 26 27 27 26 24 23 22 21 21 20 20 18 17 16 17 17 17 16 16 16 16 16 16 14 12 11 13 13 10
5 1 2 4 7 6 5 3 2 5 7 6 6 6 6 4 3 3 2 2 1 4 3 2 7 7 3 4 6 9 12 13 13 12 12 11 11 11 10 9 10 10 10 10 9 11 13 14 16 18 19 21 21 22 23 24 25 26 27 27 26 25 25 24 23 23 22 21 20 17 16 17 17 17 17 16 16 16 16 15 14 12 12 13 14 11
4 4 3 3 4 7 7 4 3 4 5 4 5 5 5 2 2 2 1 0 2 5 2 3 4 5 6 6 6 8 9 11 13 13 14 14 13 12 11 9 9 9 10 10 9 9 9 11 15 18 19 20 22 23 24 24 25 26 27 27 27 26 26 25 24 24 23 22 20 19 18 17 16 16 16 16 16 16 16 15 13 13 13 14 14 13
4 5 3 0 1 5 9 5 3 3 4 5 6 5 4 3 2 0 2 2 2 4 1 5 3 2 4 5 6 9 11 12 12 12 13 13 14 13 12 10 9 10 11 10 10 10 9 12 17 20 21 22 23 25 26 25 26 26 26 27 27 27 26 25 24 24 24 22 20 20 19 19 18 17 17 17 16 16 15 14 13 13 14 15 15 14
1 4 3 4 2 5 9 9 10 9 5 4 4 4 5 4 3 3 3 2 2 1 2 5 3 3 3 3 4 5 7 9 11 11 10 10 11 11 9 9 10 10 10 10 10 11 12 16 20 21 22 23 24 26 26 26 26 26 26 28 28 27 26 25 25 25 24 22 20 19 20 20 19 19 19 18 17 16 15 14 13 13 14 14 14 14
2 5 7 4 2 8 9 9 11 10 4 2 1 4 3 4 4 3 3 3 3 2 2 3 3 3 3 4 4 1 1 5 9 10 10 10 10 9 8 9 10 10 10 10 11 11 13 18 21 22 23 23 24 25 26 26 27 27 27 28 28 28 27 26 26 27 25 22 20 20 20 19 18 18 19 19 17 16 15 13 13 13 13 13 13 13
1 5 7 4 2 6 9 9 9 7 5 2 1 3 2 3 6 4 0 1 3 2 1 2 3 4 2 4 3 3 1 3 7 10 12 12 12 12 10 9 10 11 11 11 11 12 14 18 20 22 23 24 24 25 26 28 29 29 29 29 29 27 27 27 27 28 26 23 21 20 20 18 17 18 20 19 18 16 15 14 13 13 13 12 12 12
2 3 6 4 3 4 4 9 5 1 5 5 2 5 3 3 4 5 1 3 2 1 2 2 3 4 1 3 2 3 4 6 8 10 12 12 13 14 12 11 11 12 12 12 12 12 14 18 20 22 23 25 26 28 29 30 30 30 30 29 29 28 28 28 28 28 27 24 23 22 20 19 18 18 19 19 17 16 15 15 13 13 13 12 11 11
3 1 7 4 1 4 2 8 3 4 3 3 3 5 4 3 1 3 3 1 1 1 3 2 3 3 4 4 2 5 8 8 9 10 11 13 14 14 13 12 11 11 12 11 11 10 12 17 21 23 23 24 26 28 28 29 28 28 28 29 29 30 29 28 28 28 27 26 25 23 22 20 19 18 18 18 17 16 16 16 15 13 12 11 11 11
2 1 5 4 2 3 3 4 3 2 4 3 0 2 1 2 3 3 3 3 3 2 2 2 2 3 5 5 5 9 11 10 10 10 11 13 14 13 12 12 11 10 11 11 11 10 11 17 22 25 26 26 27 27 26 25 26 27 28 27 28 28 27 27 27 27 27 27 26 25 23 22 21 20 19 17 17 17 17 16 16 15 14 12 12 12
1 2 2 5 5 2 1 1 5 5 3 2 2 3 2 1 2 3 2 2 3 3 2 0 2 5 5 2 4 7 8 9 11 11 11 11 12 11 11 12 11 10 11 11 11 11 12 16 22 24 26 27 26 26 25 25 26 26 26 27 27 26 26 26 27 27 27 27 26 26 25 24 23 22 20 18 17 17 17 16 16 16 15 14 14 15
1 2 1 4 3 1 4 3 4 5 6 5 3 3 4 2 3 3 1 2 2 3 3 3 2 6 4 1 2 4 3 5 7 9 8 8 9 10 9 10 11 10 10 11 12 11 11 15 20 22 23 23 22 22 23 24 25 25 25 25 26 26 26 27 27 27 27 27 26 26 25 25 24 24 22 20 18 17 17 17 17 17 16 17 17 17
2 3 3 2 3 3 6 3 1 4 6 5 3 3 3 2 3 5 2 3 1 1 1 2 1 5 4 2 3 4 2 1 3 5 5 5 6 7 6 6 8 8 9 10 12 11 12 16 20 21 21 22 22 23 23 23 24 24 25 25 24 25 26 27 27 27 26 25 25 25 24 24 24 24 23 21 19 18 18 18 18 18 18 18 18 18
2 3 3 2 5 4 5 5 2 1 3 3 1 2 2 1 2 5 4 3 3 2 1 2 1 4 4 4 3 3 3 2 3 3 5 4 3 4 5 5 6 6 6 8 9 9 11 16 18 18 20 21 22 23 23 23 23 23 23 24 25 26 26 26 26 25 25 25 24 23 23 23 22 22 23 22 20 19 19 18 19 19 19 18 18 18
1 1 3 2 4 5 5 6 5 4 3 2 2 4 2 1 2 3 1 3 2 3 4 3 2 5 4 4 4 4 4 4 3 3 4 5 4 4 5 5 5 6 6 7 8 9 10 12 14 16 18 20 21 23 23 23 22 21 21 21 22 23 24 24 24 24 25 24 24 23 22 22 21 21 22 22 21 20 20 19 19 19 19 18 18 18
2 2 3 4 3 1 0 1 2 3 4 2 3 5 5 3 2 3 2 3 1 3 3 4 4 5 4 4 5 6 5 4 4 4 4 3 4 5 5 5 5 6 7 7 8 9 10 10 12 16 19 20 21 23 24 24 23 22 21 20 19 18 18 18 20 22 24 24 23 23 23 22 21 21 22 22 21 21 21 20 20 20 20 19 19 18
4 3 3 6 5 3 4 4 4 1 2 3 5 7 6 5 2 3 4 3 3 3 2 3 3 1 6 5 4 5 5 4 3 3 4 4 4 4 5 6 6 6 6 7 7 8 9 9 11 15 18 20 21 23 24 24 24 24 23 22 20 20 19 17 16 18 21 23 23 24 24 24 23 23 22 22 22 21 21 20 21 21 20 19 19 18
5 3 3 6 5 1 4 4 4 3 5 4 5 7 8 8 6 6 4 1 2 3 2 6 3 3 5 5 3 3 4 3 3 3 3 4 4 4 4 4 4 4 5 5 6 7 8 9 10 12 16 19 20 22 23 24 25 25 24 23 23 23 23 21 18 17 17 20 22 24 25 25 25 24 23 22 21 21 21 21 21 21 20 19 19 19
5 2 1 4 4 4 2 2 4 3 3 5 7 8 8 9 10 7 2 4 2 3 4 6 3 4 4 5 3 2 2 3 3 3 3 3 4 4 5 5 4 3 3 3 2 4 6 6 6 9 13 16 18 20 21 22 24 24 23 23 23 23 23 23 22 20 18 18 21 24 26 26 25 25 24 23 22 21 21 21 21 21 20 20 19 19
4 1 1 3 5 4 3 3 3 2 2 5 8 8 7 7 9 7 4 5 3 3 2 1 6 8 4 3 4 3 3 3 3 4 4 4 4 4 5 5 5 4 3 4 4 3 4 4 4 6 8 11 15 19 19 20 22 24 24 23 23 22 22 22 22 22 21 21 22 24 25 26 26 26 24 23 23 22 22 22 22 22 22 20 19 19
3 1 1 4 5 3 5 2 2 3 2 4 8 8 6 6 7 8 7 6 4 2 3 3 7 7 4 4 6 5 5 5 6 6 6 4 4 4 4 4 4 4 5 6 6 4 4 5 6 8 7 7 9 13 17 20 21 23 22 22 22 22 22 22 23 23 24 25 25 24 24 25 26 26 26 25 24 23 23 23 23 23 22 21 19 18
3 2 1 4 4 2 5 6 4 3 3 5 8 9 8 6 5 6 7 7 5 4 5 5 5 2 3 5 7 6 6 7 7 7 6 4 4 4 3 2 2 3 4 4 4 4 5 6 8 10 10 8 7 8 12 15 17 18 19 19 20 21 21 22 22 23 24 26 25 23 24 25 26 26 26 26 25 24 23 23 23 23 23 21 19 18
3 3 2 3 4 4 4 5 5 4 5 4 4 3 3 4 3 3 6 8 7 4 2 2 2 1 1 4 6 6 6 6 6 5 5 4 4 5 4 3 3 1 2 4 4 4 4 6 10 14 16 17 17 15 13 12 14 16 17 18 19 19 20 21 22 22 23 24 24 23 23 23 24 26 27 27 26 25 23 22 22 22 22 22 20 20
3 4 2 2 3 4 4 4 3 3 2 3 4 3 1 4 5 5 4 6 7 5 3 3 3 4 4 5 5 5 5 5 6 6 6 5 5 5 5 5 2 1 0 2 3 2 1 3 9 16 20 22 23 22 19 15 15 16 17 17 17 17 17 18 19 21 22 23 24 25 24 22 20 22 25 26 25 23 22 21 22 22 23 23 21 21
3 4 2 2 3 3 1 2 1 3 4 5 3 1 3 7 8 7 4 4 6 6 5 6 6 6 5 5 5 6 7 7 7 8 8 7 6 6 7 6 1 2 2 5 4 2 1 3 8 12 15 17 21 23 21 17 16 17 16 16 16 16 17 17 17 19 21 22 23 24 25 24 21 20 21 22 22 20 19 18 18 19 20 23 23 22
4 4 3 2 2 1 2 2 3 5 5 2 2 3 3 3 4 4 4 3 3 3 2 5 6 5 4 4 4 5 6 6 7 7 7 8 7 7 7 5 2 1 3 4 2 1 2 2 5 8 10 13 18 22 23 20 20 19 17 16 17 18 19 19 19 19 20 21 22 22 23 22 20 17 17 18 19 20 20 19 18 15 15 18 21 22
4 3 2 2 1 1 2 1 1 2 2 1 2 2 1 1 1 1 1 3 4 3 1 3 6 5 3 1 1 1 2 3 5 6 7 8 8 7 6 5 5 4 3 2 2 1 4 4 5 9 11 14 19 23 25 24 23 21 19 17 17 18 18 18 18 18 19 19 20 21 20 19 19 20 21 20 20 21 21 21 21 19 16 16 18 20
3 1 3 3 1 2 4 2 2 2 2 3 3 2 1 2 4 3 3 3 5 3 2 1 6 6 3 1 2 3 2 2 3 3 5 7 7 7 6 6 7 6 3 3 5 4 2 3 6 10 11 13 18 20 20 21 20 19 17 16 16 17 16 15 16 17 18 19 19 19 19 19 20 20 20 21 22 23 21 20 19 20 20 19 19 18
5 2 4 5 2 2 4 3 1 2 3 4 5 5 3 2 4 2 4 4 5 4 2 2 5 6 3 1 3 3 3 2 1 2 2 5 6 5 5 5 6 7 6 7 8 4 2 4 3 4 5 9 15 16 14 15 16 14 12 14 17 18 18 18 18 19 20 20 18 18 19 19 18 16 16 21 25 23 19 17 17 17 18 18 18 16
6 4 4 4 2 2 4 2 1 3 2 3 4 5 4 2 2 6 4 5 5 4 3 3 4 3 2 1 2 3 3 0 2 2 2 5 6 6 5 5 7 8 8 9 8 5 3 6 6 5 5 2 6 10 12 15 15 13 12 13 15 16 16 18 19 20 21 21 19 20 20 20 18 18 19 23 23 17 14 15 15 15 15 15 16 15
3 3 2 3 3 2 3 2 1 3 3 3 4 5 4 0 4 4 2 5 3 3 4 3 1 1 1 0 1 2 0 1 1 3 4 5 6 6 7 8 9 10 10 10 9 8 7 9 11 11 10 8 4 5 11 16 15 12 11 10 10 10 11 14 16 17 19 20 20 19 19 17 15 16 19 20 19 15 14 16 17 18 18 17 17 17
1 2 2 2 3 2 2 2 1 3 3 3 3 5 2 2 2 3 4 3 2 3 4 4 2 1 1 1 1 1 2 3 5 5 5 5 5 5 6 8 10 11 12 12 12 11 10 11 14 15 13 10 8 7 8 12 13 12 11 12 11 10 11 13 15 17 17 18 18 17 15 14 14 15 18 20 19 16 15 16 17 20 21 21 21 21
2 2 0 1 2 2 3 3 1 2 4 2 3 2 0 2 2 3 2 1 1 2 4 3 2 1 1 1 2 4 4 5 5 5 5 5 5 5 7 8 9 10 12 13 13 12 12 13 15 16 16 14 12 9 8 11 14 15 14 13 12 11 12 14 16 16 16 16 15 14 14 14 15 16 15 14 13 13 13 13 14 17 20 22 23 23
2 2 1 2 2 3 3 2 3 4 4 2 1 1 2 2 2 2 1 2 2 2 3 2 0 1 2 3 4 5 5 5 5 4 5 5 4 5 7 9 10 11 12 13 13 12 13 14 16 17 17 17 15 12 11 13 15 16 14 13 11 11 12 13 14 15 15 14 12 11 11 11 11 11 10 9 10 11 11 11 13 16 19 22 24 23
2 3 3 2 1 2 4 5 5 4 4 3 1 3 3 3 1 2 3 1 2 2 1 1 0 1 2 4 5 4 4 4 5 5 4 4 4 5 7 8 10 11 11 12 12 12 13 14 16 17 18 18 17 15 14 15 16 15 13 11 10 11 12 12 11 12 13 12 11 10 9 10 10 10 9 10 11 12 13 14 16 17 19 21 23 23
2 2 4 3 0 1 2 2 2 3 4 4 2 2 1 2 3 2 3 3 1 1 1 2 2 2 3 5 5 4 4 4 5 5 4 4 5 6 8 9 9 10 10 11 11 11 12 14 15 17 19 19 18 17 16 16 16 15 13 11 10 11 12 13 13 14 14 15 15 14 14 15 15 14 13 13 13 13 13 14 15 16 17 18 19 20
2 2 4 3 1 1 0 3 3 3 4 5 4 2 2 3 3 3 3 2 1 2 2 2 3 4 5 5 5 5 5 5 6 5 4 4 4 5 7 8 7 8 8 9 9 10 11 13 15 16 18 19 18 18 18 17 17 15 13 12 10 11 13 15 15 15 15 16 16 17 17 18 18 17 17 16 15 15 15 14 14 15 15 15 16 17
1 3 3 2 2 2 3 5 4 4 5 4 3 2 1 2 3 4 3 3 3 4 3 3 5 5 4 5 6 5 4 5 6 5 4 4 4 4 6 7 7 7 7 6 6 8 9 12 14 15 16 16 16 16 17 17 17 15 14 12 11 11 14 15 16 16 15 15 15 15 16 17 17 17 17 16 14 14 14 13 13 13 13 13 14 14
2 3 2 2 2 1 3 4 2 3 5 5 4 3 1 1 2 4 4 4 5 6 5 6 6 6 7 7 6 5 5 5 5 5 4 3 3 5 6 7 7 7 7 6 5 6 7 9 10 12 13 13 13 13 15 15 15 14 13 13 12 13 15 15 14 14 14 13 13 13 13 13 13 13 14 13 13 13 12 11 10 10 10 11 11 10
3 2 2 3 3 1 4 4 3 2 1 4 5 3 2 2 3 5 5 5 5 6 6 7 8 9 9 8 7 7 6 5 5 5 4 3 4 5 6 7 8 7 7 7 6 6 6 7 7 8 10 10 9 10 11 12 12 11 11 11 11 12 13 13 12 13 12 11 11 10 9 9 9 9 10 10 11 11 11 11 9 8 8 9 8 8
4 4 5 5 3 4 5 5 5 4 2 4 3 2 3 3 4 5 5 4 4 4 6 8 8 8 7 6 7 9 7 5 7 8 6 4 5 6 5 6 7 7 7 6 6 6 6 6 6 7 8 8 8 8 8 8 8 8 8 8 8 9 9 9 10 10 10 8 8 7 6 6 7 8 9 10 10 10 11 12 11 10 9 9 8 7
Wind_Direction
121 121 189 183 205 197 191 206 191 147 138 133 109 98 113 112 94 75 95 262 290 66 69 148 126 148 153 154 190 285 192 197 197 188 187 189 191 190 187 191 193 203 210 195 188 186 183 180 177 179 184 187 192 198 201 200 196 194 192 188 186 183 180 178 177 178 181 181 179 179 179 175 171 171 172 176 185 186 179 174 168 153 129 13 337 185
83 154 224 216 211 204 198 209 192 120 116 122 122 112 88 106 90 56 108 235 34 79 277 194 126 140 152 153 178 351 195 205 203 197 197 197 198 195 190 192 196 203 199 171 173 178 177 175 174 177 181 184 189 195 200 202 198 196 195 191 187 185 184 181 179 178 180 180 178 179 180 177 174 175 175 175 177 178 179 180 173 157 119 2 7 148
44 214 241 230 206 183 219 213 183 153 137 117 107 121 161 159 98 50 108 82 15 101 183 210 116 98 126 170 195 217 212 222 218 209 208 204 200 197 195 195 192 190 180 165 164 169 173 174 173 176 179 183 190 193 198 203 201 197 196 193 189 187 186 183 181 179 176 174 174 178 181 179 179 180 180 177 174 177 181 177 169 162 124 44 89 123
178 243 248 217 142 121 337 255 157 163 158 134 129 132 189 179 141 256 128 101 36 72 121 116 78 34 31 197 226 242 229 242 249 233 225 215 208 204 199 192 182 179 180 176 168 166 170 171 173 177 180 182 188 192 197 201 201 198 196 192 188 186 187 185 183 181 175 169 169 175 182 184 185 186 184 185 185 188 186 177 171 162 142 111 108 118
227 242 177 109 120 146 186 277 154 168 236 228 170 157 170 185 184 118 115 113 56 48 103 111 86 312 202 198 228 244 232 237 258 243 231 224 221 217 206 194 183 180 179 175 172 168 168 172 178 182 181 181 186 191 197 200 200 198 195 191 188 186 186 187 185 182 178 175 176 180 183 185 187 187 188 192 196 197 195 188 177 161 153 147 132 126
263 248 146 116 123 142 151 221 201 176 215 292 212 186 177 183 179 116 116 118 75 3 194 141 129 255 198 201 220 224 221 224 227 230 230 223 217 214 204 196 189 185 181 176 173 171 173 176 180 183 183 183 187 192 197 200 200 198 194 192 190 188 187 188 188 186 184 184 185 186 185 184 185 186 191 195 196 197 197 190 181 168 166 169 161 149
270 255 137 139 166 150 157 228 236 173 146 296 237 180 162 161 149 132 136 138 149 211 206 174 175 269 196 214 219 211 217 221 215 226 233 222 207 202 197 188 183 184 183 179 176 173 174 175 177 183 186 188 191 192 194 199 201 199 195 193 192 190 189 190 192 193 194 193 192 191 190 191 193 192 193 194 195 196 195 190 185 180 176 177 175 167
220 253 97 145 158 160 185 238 234 161 134 265 256 154 145 147 146 149 148 143 152 90 86 177 173 49 228 224 212 202 214 223 219 225 231 222 209 201 195 186 180 182 181 178 178 177 178 177 180 186 190 193 194 191 191 196 201 201 198 194 194 194 192 193 197 200 200 197 196 196 197 199 202 201 196 194 196 199 199 196 191 186 183 182 178 175
209 200 219 192 177 194 211 222 200 163 147 268 27 105 126 126 127 138 130 111 110 85 96 213 190 211 263 236 198 192 210 223 218 219 220 215 210 203 193 186 183 184 181 178 179 182 183 182 185 189 191 193 192 190 191 195 199 202 200 196 196 197 197 197 201 203 200 198 200 201 203 203 202 204 201 197 200 203 204 201 197 193 191 189 187 185
241 209 198 165 165 210 227 227 176 146 143 100 86 82 79 75 75 77 73 37 38 69 201 201 184 210 278 237 178 185 211 220 214 212 215 210 206 203 194 185 184 184 183 183 183 184 187 187 189 190 189 190 191 192 192 193 197 200 199 197 197 199 201 201 203 203 200 201 203 205 206 204 201 202 204 202 204 207 207 204 201 200 198 195 193 194
267 233 179 150 186 200 190 189 138 123 128 106 92 86 75 63 57 58 43 33 35 297 244 192 179 179 280 245 186 194 209 210 205 205 207 204 203 202 194 185 183 183 183 186 188 189 189 187 185 184 184 187 189 190 190 191 195 197 197 198 198 201 203 203 205 206 205 206 208 209 206 202 199 199 200 202 204 207 209 207 205 205 204 200 197 198
316 290 192 209 208 169 108 55 60 144 152 118 100 112 92 45 16 42 18 33 138 249 267 192 173 170 231 255 207 210 211 200 200 201 198 197 199 199 194 187 184 184 182 183 187 189 183 176 175 178 182 185 185 186 189 192 194 194 196 197 199 201 202 203 205 208 209 208 211 214 210 203 200 200 200 201 204 206 209 211 212 213 210 203 201 202
308 233 231 251 211 147 114 49 39 144 171 123 117 127 98 46 3 28 324 266 210 242 225 124 143 176 235 253 218 214 215 205 203 201 195 193 193 194 191 186 185 184 183 183 182 180 174 170 173 177 180 182 183 186 189 192 194 194 195 196 198 200 201 204 207 208 208 208 212 216 216 212 208 210 209 207 207 207 209 213 216 217 211 205 204 206
323 299 296 269 252 151 133 111 103 173 195 157 148 143 117 108 96 175 258 255 252 263 198 118 125 216 259 268 229 213 211 206 203 201 197 191 190 191 187 181 183 184 184 183 179 176 177 179 179 179 181 183 185 188 189 192 194 194 195 196 198 201 203 205 207 207 207 209 214 218 220 219 220 224 222 217 214 211 211 214 216 214 208 205 206 209
108 309 258 186 216 166 152 158 169 171 172 186 177 138 141 152 150 183 207 204 216 258 119 125 153 207 209 256 250 229 217 201 194 196 192 188 189 186 176 172 178 184 185 184 181 180 183 183 181 182 184 185 187 187 188 191 193 195 196 197 198 201 204 206 207 207 209 213 217 219 221 223 229 234 229 224 222 216 212 214 213 209 206 207 209 212
153 260 249 248 220 166 168 171 160 147 141 219 188 108 156 181 145 142 193 169 132 110 139 158 221 227 205 253 256 247 277 202 189 186 178 180 185 175 169 173 178 183 185 184 184 184 186 185 183 183 186 188 188 187 188 190 193 195 197 198 200 202 204 206 206 207 212 217 220 221 222 227 232 232 226 223 222 217 215 219 218 213 212 213 214 216
138 274 272 303 299 181 178 165 151 149 154 164 149 147 184 164 121 106 269 9 87 118 222 191 256 289 308 282 249 138 136 200 188 186 182 182 179 175 180 179 177 181 183 186 186 186 186 185 184 185 186 187 187 188 189 192 194 196 198 199 200 202 204 206 207 209 213 219 222 223 224 229 232 227 223 222 220 218 218 224 227 224 223 222 221 221
172 277 287 311 317 267 178 135 119 124 136 124 187 185 139 76 80 92 81 344 54 169 265 224 249 289 306 284 295 135 184 203 193 189 186 183 180 183 187 180 177 180 182 187 187 187 186 184 185 187 188 189 190 191 192 194 196 197 198 200 200 201 204 206 208 209 214 219 222 225 225 228 230 228 226 225 224 225 224 227 232 230 227 227 226 227
151 270 291 290 305 313 50 108 83 341 51 98 196 187 132 94 82 107 141 229 156 190 283 270 265 265 211 228 235 193 203 202 195 191 186 187 187 188 189 182 179 177 179 185 185 186 188 186 187 188 188 192 193 194 195 194 195 196 199 201 201 203 205 207 208 209 213 218 221 225 227 228 229 228 228 229 231 234 234 235 238 237 233 231 230 232
137 124 276 291 345 347 27 106 148 297 340 354 91 163 130 122 155 165 173 179 157 177 259 294 319 261 226 220 197 200 204 192 188 193 191 193 192 190 189 184 180 177 178 182 181 184 189 189 190 189 189 191 193 195 195 193 194 196 199 201 202 204 205 206 208 210 213 217 220 224 228 229 229 229 230 232 235 237 239 241 244 243 242 238 235 235
105 106 263 308 349 41 10 182 161 167 213 250 177 169 190 123 150 181 192 162 135 147 194 199 304 266 249 227 205 217 211 190 186 192 194 196 192 192 193 188 183 179 179 180 180 183 187 190 191 191 191 192 192 192 192 192 195 197 199 201 202 202 203 204 207 210 213 216 219 223 226 229 229 229 230 233 235 237 238 242 245 244 243 240 237 235
152 109 90 312 330 153 238 247 158 179 204 190 170 171 176 163 142 145 248 270 120 126 173 162 244 269 271 295 288 279 240 196 190 191 193 194 191 192 196 193 187 181 181 181 180 180 182 186 189 190 190 190 188 188 189 191 194 196 198 201 202 202 203 205 207 209 213 216 219 222 226 228 228 228 228 232 236 237 238 240 241 239 237 237 237 238
148 106 99 261 263 235 260 287 121 211 205 164 151 150 147 144 127 133 200 239 153 108 178 129 223 268 278 317 317 311 304 175 164 178 183 185 189 186 185 186 181 178 183 182 178 176 177 181 184 185 184 185 186 186 188 191 193 196 199 200 202 203 205 207 208 210 213 216 220 223 225 227 228 227 228 231 234 236 238 238 236 234 235 238 242 244
73 73 73 284 295 306 305 336 11 201 149 119 38 61 113 206 167 157 186 182 151 171 157 90 281 265 290 329 331 325 347 69 113 146 153 156 157 154 159 162 159 164 176 181 174 165 165 171 176 179 182 183 184 185 187 190 193 196 199 200 202 205 208 209 209 210 213 217 221 224 225 227 229 229 228 230 234 237 238 238 235 235 238 242 245 247
66 78 74 49 356 350 346 357 0 352 22 62 357 4 353 290 145 164 153 80 116 201 151 119 246 259 285 341 2 2 24 62 75 98 123 139 143 140 146 144 143 149 160 172 165 151 153 161 166 173 179 181 182 183 185 187 189 192 197 201 203 206 209 210 210 211 214 217 220 222 225 227 229 231 231 232 236 239 240 239 237 237 240 242 245 247
109 127 106 110 108 90 42 336 306 306 325 340 352 345 340 14 98 166 140 93 165 227 151 151 217 260 302 358 22 12 25 48 47 66 87 106 128 136 140 142 145 149 155 166 165 157 155 157 162 169 174 177 179 181 184 184 184 186 192 197 201 204 207 210 213 214 214 215 218 220 223 226 228 230 231 234 239 242 242 240 241 241 242 243 245 247
95 90 85 116 130 160 185 228 266 299 38 1 341 340 351 9 61 119 109 137 188 182 191 227 217 318 340 353 17 6 14 36 43 66 85 99 116 130 145 152 150 145 150 159 161 160 156 153 159 164 168 174 177 180 183 182 181 183 186 188 194 199 202 206 213 219 219 217 217 219 221 224 227 229 230 233 238 242 243 243 244 245 246 248 250 249
92 72 60 102 97 108 201 240 304 27 74 44 1 357 5 12 38 79 91 264 232 141 236 292 336 33 341 337 2 358 10 36 43 57 90 125 130 127 135 141 138 125 120 130 145 158 160 157 157 160 166 171 174 178 182 183 184 186 187 188 193 200 203 203 207 216 224 224 221 220 223 225 227 230 231 233 237 239 241 242 244 246 249 253 253 251
106 115 192 115 65 12 7 359 3 40 82 58 37 20 14 24 39 58 53 318 351 140 229 289 21 54 339 330 358 4 34 58 57 61 82 116 123 127 134 137 147 132 83 76 116 141 161 166 152 152 160 165 170 176 180 184 188 190 190 192 196 203 207 206 205 207 217 227 228 226 225 227 228 230 232 235 237 238 239 239 240 243 249 254 254 253
101 162 236 108 72 20 357 35 71 89 67 48 41 27 26 40 46 50 29 353 28 125 199 332 74 63 9 345 26 38 64 68 61 64 75 99 119 136 143 143 159 162 157 203 218 177 165 163 126 129 150 165 172 175 177 186 193 194 195 196 198 201 206 209 207 205 209 220 229 232 229 228 228 229 231 234 237 239 239 238 238 241 247 252 253 253
78 106 314 72 70 350 313 326 74 86 92 65 42 27 27 41 43 38 26 10 18 36 358 40 74 57 24 52 65 62 68 67 63 62 64 83 120 148 160 157 161 165 170 198 217 208 178 164 154 159 166 173 180 177 180 192 197 196 198 200 199 200 204 208 207 207 211 215 221 229 232 230 228 228 230 233 236 238 238 237 238 240 244 249 251 251
63 102 38 68 90 285 306 323 342 24 71 51 30 19 14 26 37 32 32 33 19 337 340 37 71 29 2 65 76 72 70 68 67 63 58 61 85 125 154 146 129 150 161 171 195 208 189 172 173 173 166 173 198 197 194 201 201 197 201 205 205 205 206 209 209 211 217 218 217 224 233 234 231 229 229 231 233 236 238 237 237 239 242 246 249 250
79 130 143 115 147 218 278 313 332 24 37 6 354 360 11 40 63 42 35 30 16 350 346 58 98 226 27 84 93 88 79 75 69 64 61 56 63 85 106 90 63 62 165 164 177 199 197 181 177 176 177 188 200 202 204 213 213 207 208 209 210 211 210 210 211 214 219 220 216 219 228 235 235 232 231 231 232 234 236 235 235 237 241 245 248 249
81 114 144 124 146 210 267 311 335 27 31 269 260 256 152 108 102 86 49 6 0 22 70 93 106 114 100 97 105 98 84 75 65 56 51 47 49 66 85 93 89 307 94 88 68 42 343 193 184 186 191 196 200 203 207 216 218 213 213 210 207 207 205 204 210 215 218 219 216 214 217 226 237 239 235 231 231 233 233 233 234 236 239 242 244 244
92 98 116 90 124 178 274 15 247 251 238 232 263 328 127 121 111 99 75 8 360 22 50 76 88 102 111 115 116 109 97 87 79 67 56 57 62 67 70 75 118 250 52 60 50 15 308 222 201 200 200 197 198 202 208 216 217 211 208 204 199 198 200 204 213 219 220 220 219 216 215 220 231 242 241 231 227 226 224 223 226 231 237 238 238 239
130 129 130 88 102 157 76 103 198 238 255 270 7 43 85 84 79 80 50 358 337 349 34 95 99 91 93 99 112 122 120 103 85 67 51 50 55 71 88 106 153 323 41 75 139 264 322 291 234 217 208 198 195 199 203 209 213 208 201 196 195 198 202 206 212 216 218 221 223 224 222 217 215 228 238 231 221 217 215 215 218 225 238 241 236 233
124 134 117 80 75 145 118 120 262 292 297 312 18 52 101 3 303 133 100 290 265 259 260 132 118 94 72 53 357 172 155 94 69 50 41 43 43 53 74 95 99 81 63 111 144 30 1 328 253 225 213 201 196 199 202 204 204 202 195 191 193 198 200 201 204 208 215 220 221 222 222 215 208 215 227 229 223 217 216 218 221 223 231 238 234 226
77 145 150 138 129 97 96 65 10 353 264 241 256 271 232 245 250 183 133 283 265 243 268 168 134 127 137 233 305 324 333 35 47 21 33 50 54 56 56 51 64 73 54 39 57 52 355 290 250 232 220 205 200 200 199 198 199 199 192 185 187 194 199 204 210 217 222 223 219 215 214 214 213 215 220 224 224 220 215 214 217 219 220 222 222 217
36 41 101 107 92 92 105 110 147 197 237 237 242 268 296 265 244 125 75 313 264 203 206 200 160 149 156 252 325 7 42 40 321 284 34 61 60 60 61 53 58 61 43 37 51 58 330 324 303 255 221 206 207 203 193 194 203 207 198 186 182 184 190 198 209 220 223 219 211 207 207 210 213 214 219 227 228 223 214 208 208 210 209 207 208 206
16 16 56 84 96 114 110 110 203 215 240 241 242 280 306 263 136 83 54 288 251 181 169 183 178 168 158 289 347 46 78 303 253 222 106 81 73 68 66 61 58 57 47 41 46 44 14 15 26 39 53 89 203 199 189 196 206 206 199 194 188 184 187 196 208 217 219 214 207 205 208 210 213 218 225 231 231 223 215 214 209 203 201 202 203 199
5 10 52 110 119 108 111 122 245 254 246 239 257 289 300 286 93 89 199 240 215 158 155 138 103 22 35 31 22 59 132 237 156 122 96 81 79 74 69 67 66 61 55 52 54 55 49 47 52 57 55 53 70 152 172 182 185 179 175 178 182 185 190 200 210 212 210 207 202 201 206 211 215 219 223 228 231 228 229 230 222 212 209 207 200 190
30 28 25 102 107 95 113 116 321 277 242 231 273 291 292 125 137 202 229 231 152 139 141 126 109 27 2 10 91 139 144 112 101 99 92 89 87 76 64 64 67 64 59 59 59 59 57 55 58 61 61 63 75 98 134 149 146 139 142 150 162 176 184 191 198 201 199 198 196 196 198 201 202 206 212 221 226 222 218 217 211 206 205 200 189 179
154 117 333 192 147 114 82 78 73 238 234 259 316 320 106 140 201 223 249 359 54 114 118 122 151 169 134 84 106 124 121 107 103 103 95 86 83 82 76 71 68 64 61 61 59 59 60 57 56 57 58 65 80 92 109 123 121 118 124 134 148 163 169 173 179 182 183 185 186 187 187 186 185 184 189 200 208 204 200 199 195 190 186 181 173 165
173 142 194 233 177 123 112 158 201 216 238 273 325 184 205 240 222 174 128 3 15 69 100 104 91 188 155 128 116 122 123 110 99 95 87 79 75 79 78 76 74 69 64 63 63 65 66 62 58 58 58 62 75 87 101 112 113 111 113 117 123 130 136 144 151 153 155 159 160 161 164 167 167 164 162 170 183 185 180 173 168 163 159 156 151 145
216 184 170 177 172 158 181 212 229 242 261 274 228 214 248 296 333 127 130 82 33 41 93 110 122 203 136 121 118 114 105 95 82 72 70 71 68 70 71 72 78 80 77 73 74 76 74 70 66 63 60 62 71 80 90 101 105 100 97 106 118 121 122 127 130 130 133 134 129 126 129 129 125 127 135 155 169 167 156 149 146 143 140 139 139 137
223 161 133 128 196 248 224 246 280 304 304 311 308 260 281 351 5 66 92 89 87 142 155 151 161 146 108 109 117 103 86 88 82 70 73 76 66 72 79 75 75 84 87 85 86 87 86 81 75 70 65 65 72 79 83 88 92 90 92 104 117 117 114 115 114 113 114 114 113 114 116 114 114 118 123 132 140 140 137 139 140 137 135 135 135 135
255 130 105 98 90 82 268 283 306 317 300 304 317 326 23 37 28 49 72 85 127 138 137 124 118 112 99 100 109 106 101 104 98 84 83 86 76 78 85 82 78 82 84 86 91 96 97 90 82 76 72 70 73 80 82 84 87 90 94 102 107 109 107 107 105 106 107 107 108 111 113 112 114 115 116 117 121 121 122 127 131 131 131 134 134 134
201 110 103 105 106 132 222 254 284 306 294 294 302 296 337 38 33 41 61 81 94 93 87 89 101 110 103 91 94 98 93 94 100 100 96 96 99 100 100 103 103 96 88 88 93 96 97 92 87 83 80 76 78 83 85 85 87 89 92 98 107 112 108 103 101 102 102 104 105 107 109 112 115 116 114 114 116 116 117 120 124 126 127 132 137 140
115 91 129 134 87 41 248 248 284 329 318 316 312 291 285 63 63 57 62 76 88 88 79 75 81 90 98 106 119 120 100 85 91 99 102 103 106 109 113 116 112 104 96 89 83 84 87 86 86 87 84 82 85 88 88 87 88 89 91 99 109 112 107 102 101 102 100 100 101 104 108 112 114 114 114 114 114 114 113 116 121 126 131 138 147 152
112 113 149 113 83 289 236 206 165 141 267 280 284 299 334 56 78 76 70 72 83 95 98 91 82 79 87 107 134 130 110 104 114 115 107 100 106 116 124 119 109 104 102 97 87 82 80 77 77 84 85 83 86 90 91 89 89 88 89 95 104 110 109 108 107 105 101 97 95 96 101 111 117 118 116 115 116 114 111 112 114 119 127 138 151 162
156 176 170 145 161 229 223 190 159 143 188 241 263 329 7 41 71 80 84 84 88 101 112 107 99 90 82 87 109 118 118 126 136 128 109 96 117 132 127 113 106 104 102 100 96 86 79 75 75 80 83 81 80 86 90 90 90 90 90 90 97 104 109 114 117 114 110 108 104 97 91 101 119 128 125 122 122 119 117 115 112 108 110 116 124 135
Height
780 791 796 796 797 796 794 793 792 791 794 800 805 808 811 815 818 815 813 809 805 815 820 814 817 820 815 814 813 811 810 812 813 813 814 814 813 814 814 814 814 813 811 810 812 814 815 817 819 822 823 824 826 827 827 829 830 832 834 835 837 839 840 842 843 845 846 847 848 850 851 852 853 855 856 857 858 859 860 861 862 862 863 863 864 864
783 795 797 789 788 789 789 790 790 791 793 798 804 809 812 814 816 814 813 810 806 818 827 818 818 822 818 815 813 812 813 813 813 813 814 813 813 813 813 813 813 811 809 810 812 814 816 817 819 821 823 824 825 826 827 828 830 832 834 835 837 839 840 842 843 845 846 847 848 849 851 852 854 855 856 857 858 859 860 861 862 863 863 863 864 864
793 796 791 785 787 789 789 789 791 793 794 799 805 811 814 813 815 813 811 812 808 817 828 823 822 825 820 815 812 811 813 812 810 810 811 811 812 812 812 812 812 811 811 811 812 814 815 817 818 821 822 824 825 826 827 828 830 831 833 835 837 839 840 842 844 845 846 848 849 850 851 853 854 856 857 858 859 859 860 861 862 863 863 864 864 865
801 794 786 785 788 790 791 791 792 794 795 799 805 811 814 813 815 815 814 816 811 813 822 824 827 829 823 819 815 812 812 811 809 808 808 809 810 809 807 808 809 811 812 812 812 813 815 817 818 820 822 823 825 826 827 828 829 831 832 834 836 838 840 842 844 845 847 848 850 851 852 853 855 856 858 859 859 860 861 862 863 863 864 864 865 866
797 789 784 786 788 789 792 792 792 796 798 799 801 806 810 811 811 812 815 817 814 815 817 820 833 834 826 826 821 813 812 811 809 808 808 807 807 806 806 806 807 807 808 810 812 812 814 816 817 819 821 823 824 825 825 826 828 830 832 834 836 838 840 842 844 845 847 849 850 851 852 854 855 856 858 859 859 860 861 862 863 864 864 865 866 866
792 784 783 786 788 790 793 794 793 795 799 800 797 796 800 805 806 809 816 819 823 828 818 817 838 840 826 827 824 815 814 813 810 809 808 806 806 807 807 807 807 806 805 806 808 810 812 814 816 818 820 822 823 824 824 826 827 829 831 833 835 838 840 842 844 845 847 849 850 851 852 853 855 856 857 858 859 859 860 862 863 864 864 865 866 867
786 781 781 785 787 789 793 795 792 791 800 802 793 789 794 801 806 811 815 820 829 832 818 814 834 841 832 827 820 816 817 813 810 809 807 805 805 806 806 805 806 806 805 805 806 808 810 812 815 817 818 820 821 823 824 826 828 829 831 833 835 837 839 842 843 845 847 848 850 850 852 853 854 856 857 858 859 859 860 862 863 864 864 865 866 867
783 782 783 784 786 791 794 795 791 788 798 801 789 788 796 801 807 812 814 821 824 822 821 820 826 838 838 825 814 813 818 816 812 810 807 804 804 804 804 803 804 804 804 805 806 807 809 810 812 814 815 817 819 822 824 825 827 828 830 832 834 837 839 841 843 845 846 848 849 850 851 853 854 855 857 858 859 860 861 862 862 863 864 865 866 867
781 783 784 784 787 792 791 788 785 785 795 797 788 790 797 800 806 810 814 820 818 821 833 830 825 837 837 818 810 814 820 819 813 808 805 802 801 801 802 801 801 802 801 802 804 805 807 808 809 811 813 816 818 820 822 824 826 828 830 832 834 836 838 840 842 844 846 847 849 850 851 853 854 855 857 858 859 860 861 862 862 863 864 865 866 867
779 778 777 780 787 789 784 781 781 784 793 792 788 793 799 804 810 814 820 822 820 827 837 831 826 838 835 818 816 820 819 815 808 804 802 799 798 799 799 800 799 800 800 800 801 801 803 805 807 810 813 816 818 819 821 824 826 827 829 831 833 835 837 839 841 843 845 847 848 850 851 852 854 855 857 858 859 860 861 862 863 863 864 865 866 867
776 772 773 776 779 778 777 780 781 785 790 788 792 800 807 812 814 819 825 826 831 835 831 824 822 833 837 821 814 813 805 800 800 801 800 797 796 796 797 798 798 798 799 799 800 800 802 804 807 810 813 816 818 819 822 823 825 827 828 830 832 834 836 838 840 842 844 846 847 848 850 851 853 854 856 857 858 859 860 861 863 863 864 865 866 867
777 776 775 770 767 770 776 781 781 783 787 789 797 804 814 824 823 827 831 832 843 842 827 821 818 830 839 819 801 797 788 787 792 794 796 795 794 794 794 795 795 796 797 798 799 801 803 806 809 811 813 816 818 819 821 822 824 826 827 829 831 833 835 837 839 841 843 845 846 847 849 850 852 853 855 856 857 859 860 861 862 863 864 865 866 867
776 773 772 766 762 766 776 786 789 790 790 794 802 806 820 839 841 842 844 841 844 838 824 820 821 831 831 805 790 790 785 783 784 783 787 789 790 790 791 793 793 793 794 796 798 800 802 805 807 810 812 815 817 817 819 821 823 825 826 828 829 831 834 836 838 840 842 843 845 846 848 849 851 852 854 855 857 858 859 860 861 862 863 864 865 866
781 773 769 768 766 763 770 786 800 803 798 799 802 805 816 837 847 852 853 846 839 831 821 819 825 831 820 794 782 782 779 777 777 777 779 781 784 785 786 789 791 792 792 794 796 798 800 802 804 807 810 812 814 816 818 820 822 823 825 827 828 830 832 834 836 839 841 842 844 845 847 848 850 851 852 854 856 857 859 860 861 862 863 864 865 866
795 787 771 767 766 763 765 773 784 792 796 796 791 793 802 813 826 837 842 839 835 830 826 825 827 824 811 791 778 774 773 772 772 774 775 777 780 781 783 788 789 790 791 792 794 796 797 799 802 805 808 810 812 814 816 819 821 822 824 825 827 829 831 833 835 837 839 841 843 844 846 847 849 850 851 853 855 856 858 859 861 862 863 864 865 866
798 790 766 759 759 758 763 763 765 780 797 796 787 791 798 795 802 819 827 826 828 833 832 829 821 806 793 781 772 773 774 771 771 772 774 778 779 781 785 787 787 788 790 790 792 794 795 797 800 803 806 808 811 813 815 817 819 821 823 824 826 827 829 831 833 835 837 840 842 843 845 846 847 849 850 852 854 855 857 859 860 862 863 864 865 866
794 785 762 758 759 754 757 759 760 773 788 793 792 794 792 785 791 813 825 821 824 834 829 822 814 799 789 780 771 774 775 774 775 773 773 776 776 780 783 784 785 786 787 788 789 791 792 795 798 801 803 806 809 811 813 815 817 819 821 823 825 827 829 830 832 834 836 838 840 842 843 845 846 847 849 851 853 854 856 858 859 861 862 863 864 865
785 784 764 758 763 756 751 756 759 760 768 785 794 787 784 788 790 807 829 830 828 833 825 819 818 808 802 792 778 777 778 776 777 773 773 775 775 778 780 780 782 782 783 785 786 788 790 793 797 799 802 804 806 808 810 812 815 817 820 822 823 825 827 829 831 833 835 837 838 840 842 843 845 846 848 849 851 853 855 856 857 859 860 861 862 863
777 786 773 760 764 760 751 758 769 763 759 772 779 772 778 797 803 811 830 832 827 831 824 820 821 812 803 794 780 777 778 775 776 774 773 774 774 775 776 777 780 780 781 784 785 788 790 791 794 797 800 803 805 807 809 811 814 817 819 821 822 824 826 828 830 832 834 836 837 839 840 842 844 845 847 848 850 851 853 854 855 856 858 858 860 860
773 787 783 765 761 763 759 765 778 777 768 768 773 774 777 789 797 804 812 810 813 825 823 818 818 804 788 780 772 769 770 770 774 774 772 771 771 771 772 774 777 778 780 781 784 786 787 790 792 794 797 800 803 806 808 811 814 816 818 820 822 824 826 828 830 831 833 835 836 838 839 841 843 844 846 847 849 850 851 852 853 854 855 856 857 858
772 783 787 773 762 769 773 770 773 778 778 776 780 785 783 783 788 793 797 797 800 813 819 819 813 789 772 773 769 765 765 765 768 770 770 769 768 769 770 771 774 776 777 779 780 783 785 788 791 793 796 798 801 805 807 810 813 814 817 819 821 823 825 827 829 830 832 834 836 837 838 840 842 844 846 847 848 849 850 851 852 852 854 854 855 856
773 779 787 786 775 774 775 766 763 770 775 776 779 782 782 784 788 796 804 800 794 801 808 812 805 781 770 774 772 766 765 763 764 767 768 769 768 769 769 769 771 774 775 776 777 780 783 786 789 792 795 798 801 804 806 809 811 813 816 818 820 822 823 825 827 829 831 833 835 837 838 840 841 843 845 846 847 849 849 850 851 851 852 853 854 855
768 775 786 792 782 774 770 765 767 771 769 770 773 776 778 780 781 791 801 796 795 800 800 802 801 783 773 776 771 767 766 763 764 766 768 770 769 769 770 770 771 773 774 775 775 777 781 784 788 791 794 797 800 802 805 807 809 812 814 817 819 821 822 824 826 828 831 833 834 836 838 839 841 843 844 846 847 848 848 849 850 850 851 851 853 853
768 781 789 790 781 772 767 764 766 768 768 771 774 773 776 779 778 781 784 783 791 799 797 801 801 781 773 777 771 768 768 765 766 766 768 771 770 770 772 771 772 774 775 775 775 776 780 783 787 790 793 795 797 800 803 805 808 811 813 816 817 819 821 823 826 828 830 832 834 836 837 839 841 842 844 845 846 847 848 848 849 850 850 851 851 852
774 788 792 793 795 789 782 781 777 772 773 777 779 778 777 779 779 778 779 781 789 795 793 798 797 780 774 778 774 770 770 768 769 768 768 771 772 772 773 773 774 775 776 777 777 777 780 782 786 789 791 794 795 798 801 803 807 810 812 815 816 818 821 822 825 827 829 831 833 835 837 838 840 842 843 844 845 846 847 847 848 849 849 849 850 851
775 791 789 792 806 809 806 806 798 788 786 783 784 785 783 781 779 778 780 782 788 796 793 788 784 777 775 779 777 776 775 773 773 771 770 772 773 773 774 775 775 776 777 778 778 778 779 781 784 786 789 792 794 796 799 802 805 807 810 814 816 818 821 823 825 827 828 830 832 833 835 837 839 841 842 844 845 845 846 847 847 848 848 848 849 849
777 790 788 789 800 806 807 804 795 791 795 795 793 791 788 786 782 778 780 782 784 792 791 784 779 775 778 784 784 782 780 778 777 775 774 774 774 775 775 775 775 775 776 778 778 779 780 781 783 785 788 790 792 795 798 800 803 805 808 811 813 816 818 821 825 827 828 830 831 832 834 835 838 839 841 842 843 844 845 846 847 847 847 848 848 848
776 787 790 791 794 797 798 795 789 791 798 801 799 795 792 790 783 780 786 791 789 786 785 789 790 785 786 791 788 785 784 781 780 778 776 776 776 776 776 776 776 777 777 778 780 780 781 781 782 784 787 789 792 794 797 799 802 804 806 809 810 812 815 818 821 825 828 830 831 832 833 834 836 838 840 841 842 843 844 845 846 846 846 847 847 847
777 786 789 789 789 790 792 790 789 793 797 799 799 797 796 795 792 792 798 801 797 790 788 795 797 792 793 794 788 785 785 782 780 779 777 776 776 777 778 778 779 780 780 781 782 782 783 783 783 785 787 789 791 793 796 799 801 803 805 807 809 811 813 815 818 821 825 829 830 831 831 833 835 837 839 841 841 842 843 844 845 845 846 846 846 847
778 786 788 787 788 788 790 791 792 794 796 798 799 798 797 799 799 800 802 801 798 796 798 800 798 794 794 792 787 785 784 781 780 779 778 778 779 779 780 781 781 782 783 783 782 783 784 785 785 787 789 791 792 793 795 799 801 802 804 806 808 811 812 814 816 818 821 824 827 829 831 832 834 836 838 839 840 841 842 843 844 844 845 845 845 846
777 788 790 789 792 793 789 789 791 794 797 799 800 800 798 799 800 800 800 801 800 801 802 800 797 796 792 787 786 785 783 782 782 781 780 781 780 781 782 783 784 785 785 785 784 783 785 786 787 788 790 793 794 794 796 799 800 801 803 805 807 809 811 813 815 816 818 820 823 827 829 831 832 834 835 837 839 839 840 842 843 843 844 844 844 845
776 790 794 793 801 803 795 791 792 790 791 795 800 802 802 801 803 802 801 801 802 804 803 799 798 799 793 787 787 786 784 785 784 783 783 782 782 782 783 784 786 787 787 787 787 786 786 786 787 788 790 794 795 797 799 800 801 801 802 805 806 808 811 812 813 815 816 818 821 824 827 829 830 832 833 834 836 837 838 840 841 842 843 843 843 844
781 788 792 796 804 806 800 798 794 787 792 802 804 803 803 803 805 805 802 800 799 800 802 800 799 797 791 788 788 787 786 786 785 783 784 783 783 784 784 785 787 787 787 788 789 788 787 786 786 787 789 791 793 795 798 799 800 801 802 804 806 808 810 812 812 814 816 818 820 822 826 829 830 831 832 832 833 835 836 838 839 840 841 841 842 842
783 785 791 796 800 803 802 799 796 798 808 812 803 797 800 802 805 807 807 805 799 795 796 796 794 792 790 789 789 789 787 786 785 784 784 784 785 786 786 788 787 785 785 787 788 788 787 787 787 787 788 789 791 793 796 797 799 801 802 804 806 808 811 813 814 815 816 818 819 821 823 826 829 830 831 831 832 833 834 835 837 838 839 840 840 840
781 784 793 797 798 802 801 800 808 815 812 804 798 797 798 799 802 804 806 805 801 796 795 794 793 791 791 789 788 787 787 786 785 785 785 785 786 787 789 790 787 784 786 788 789 788 787 787 787 787 788 789 791 792 794 796 798 800 802 803 805 807 809 811 813 815 816 818 820 820 821 822 826 831 833 831 831 831 832 833 835 836 837 838 838 838
778 782 791 797 800 803 803 805 815 817 804 795 797 798 797 799 801 802 803 803 801 798 796 795 795 793 791 790 788 786 786 785 786 787 788 788 788 788 789 789 787 786 788 789 787 786 787 788 788 788 788 789 790 791 792 795 798 800 801 802 804 806 807 808 811 813 815 817 818 819 820 820 824 830 834 833 830 829 829 830 831 833 836 837 837 836
778 779 785 794 803 807 809 811 813 811 805 801 799 798 799 802 803 802 803 801 797 795 794 794 796 795 793 792 789 788 788 787 789 792 791 791 791 790 789 789 788 788 788 788 788 788 787 787 787 787 787 788 788 789 790 793 796 798 800 801 803 805 806 808 809 812 814 816 817 819 820 821 823 826 830 832 831 828 827 827 828 830 832 836 837 835
780 779 779 790 804 809 811 815 819 819 816 807 800 797 797 798 799 800 803 801 794 793 794 794 796 796 793 791 789 790 790 790 794 797 795 793 793 792 791 790 790 789 788 788 790 790 788 787 786 786 787 788 788 789 791 793 796 798 799 801 802 804 806 808 809 811 814 817 818 819 820 822 822 822 825 831 831 828 825 825 827 828 829 833 835 835
782 783 780 788 803 808 807 813 820 821 814 804 798 796 795 797 797 799 804 801 792 791 794 795 796 795 792 791 792 792 793 794 798 800 797 794 794 793 793 791 790 790 789 789 790 789 788 788 788 788 789 788 788 790 792 795 796 797 800 801 802 803 804 806 808 810 815 819 820 819 820 821 821 820 823 828 830 826 823 824 827 829 830 832 834 834
784 786 785 791 803 808 807 811 816 812 804 800 797 795 795 796 795 803 811 804 791 791 794 794 796 795 792 793 794 794 796 797 798 797 795 794 795 794 794 793 792 791 791 790 790 790 789 790 790 790 791 790 789 790 792 795 796 798 800 802 803 803 804 806 808 811 816 819 819 818 818 818 817 817 818 823 827 827 825 825 827 830 833 834 834 834
795 797 799 801 805 808 807 809 813 808 799 797 796 794 793 795 799 808 810 798 789 792 794 793 796 795 793 794 796 797 797 797 795 796 795 795 795 795 795 795 794 793 793 793 792 792 791 792 793 793 793 792 791 791 792 794 796 798 800 802 803 805 806 807 809 812 815 817 816 816 816 815 815 816 818 822 826 826 825 825 826 828 831 833 833 834
802 805 808 807 809 812 810 809 812 808 798 796 796 794 792 797 803 804 798 792 791 794 794 794 796 796 795 796 798 798 798 796 795 796 796 795 796 797 797 796 795 795 795 795 794 794 794 794 795 795 795 795 794 794 793 794 796 797 799 800 802 804 805 806 808 811 813 813 814 814 814 814 816 818 820 822 822 822 823 824 825 826 828 829 831 832
802 804 810 811 813 816 815 814 814 808 799 795 795 793 792 796 799 796 793 793 794 792 793 795 796 796 797 797 797 798 798 797 797 797 796 797 797 797 798 798 797 797 797 797 797 796 796 797 797 798 798 798 797 797 796 796 797 798 799 800 802 803 804 806 808 810 811 812 812 813 814 815 817 818 820 820 820 820 822 824 825 826 826 827 828 830
801 802 807 810 810 810 810 810 807 802 797 796 795 794 794 794 794 794 793 794 794 794 795 796 796 796 797 797 798 799 798 798 799 799 799 800 799 799 799 799 799 799 800 800 800 799 799 799 800 800 800 800 800 800 800 800 800 800 801 803 805 805 806 807 808 809 810 811 812 813 815 816 817 818 819 821 821 822 823 824 825 826 826 826 827 829
799 799 801 805 808 809 807 805 802 798 797 797 795 794 794 793 793 794 794 794 796 796 795 795 797 797 796 797 799 800 800 801 801 801 802 802 801 801 801 801 801 802 802 802 803 802 802 801 802 802 803 803 803 803 803 803 803 803 805 806 807 807 807 807 808 809 811 813 814 816 817 817 818 819 821 823 824 825 825 826 826 827 829 829 830 831
797 797 799 802 807 809 806 802 800 798 797 796 795 794 794 793 792 793 794 795 797 796 795 795 796 796 796 798 799 801 803 803 803 804 804 803 803 803 803 803 804 803 804 805 805 805 805 804 804 805 805 806 806 806 806 806 806 807 808 809 809 809 809 809 810 811 813 815 817 819 819 819 820 821 822 823 825 826 827 828 828 829 831 831 832 833
797 797 798 803 807 808 806 803 800 798 798 797 795 794 793 794 794 793 794 795 795 795 795 795 795 796 798 799 800 802 804 804 804 806 806 805 805 805 805 805 806 805 806 807 807 808 808 807 807 808 808 809 810 810 810 810 810 811 812 812 812 812 812 812 813 814 816 818 819 821 822 822 823 823 824 826 827 828 829 830 830 831 832 833 834 835
795 794 798 804 806 806 805 802 800 799 798 797 796 794 794 794 794 794 794 795 795 795 796 796 796 797 798 800 803 804 805 805 805 806 807 807 807 807 807 807 807 807 808 809 809 810 810 810 810 811 811 812 813 813 813 814 814 815 816 816 817 816 816 816 817 817 819 820 821 822 824 825 825 826 827 828 830 830 831 832 833 833 834 835 836 837
793 793 799 804 805 806 805 802 801 801 799 796 795 795 795 795 795 795 796 796 796 797 797 798 798 798 800 802 804 805 806 807 807 808 809 809 808 808 808 809 809 810 810 811 812 812 812 813 813 813 814 815 816 816 817 817 818 819 819 820 820 820 819 820 820 821 821 822 823 824 826 827 828 828 829 830 831 832 833 833 834 834 835 836 837 838
792 796 801 803 802 803 801 798 799 801 800 796 795 795 795 795 795 795 797 798 798 799 799 799 800 801 802 804 804 805 807 808 809 810 811 810 810 810 810 810 811 812 812 813 814 814 815 815 815 815 816 817 818 819 820 820 820 821 822 823 823 823 823 823 823 824 824 824 825 826 828 829 830 830 831 831 831 832 833 833 834 835 836 837 838 840
789 792 795 795 795 795 793 793 796 797 797 796 795 795 796 796 796 797 798 799 800 800 799 800 801 802 804 805 805 805 807 809 810 811 811 812 812 812 812 813 814 814 814 815 815 816 817 817 818 818 819 819 820 821 821 822 823 823 824 824 825 825 826 826 826 826 827 827 828 828 829 830 831 831 832 832 832 832 833 834 835 836 837 838 839 840